Regional Weather Roundup
Issued by NWS Charleston, WV

Home | Current Version | Previous Version | Graphics & Text | Print | Product List | Glossary On
Versions: 1 2 3 4 5 6 7 8 9 10 11 12 13 14 15 16 17 18 19 20 21 22 23 24 25 26 27 28
000
ASUS41 KRLX 291010
RWRRLX
West Virginia Regional Weather Roundup
National Weather Service Charleston WV
600 AM EDT SUN MAY 29 2016

Note: "fair" indicates few or no clouds below 12,000 feet with no
significant weather and/or obstructions to visibility.

WVZ003-291100-
Northern Panhandle of West Virginia

CITY           SKY/WX    TMP DP  RH WIND       PRES   REMARKS
WHEELING       FOG       64  62  93 SE3       30.12S VSB 1
$$

WVZ009-291100-
Northwest West Virginia

CITY           SKY/WX    TMP DP  RH WIND       PRES   REMARKS
PARKERSBURG      N/A     66  64  93 CALM      30.14R FOG
$$

WVZ006-291100-
Western West Virginia

CITY           SKY/WX    TMP DP  RH WIND       PRES   REMARKS
HUNTINGTON       N/A     67  65  93 CALM      30.11S FOG
$$

WVZ015-291100-
West Central West Virginia

CITY           SKY/WX    TMP DP  RH WIND       PRES   REMARKS
CHARLESTON     MOCLDY    64  62  93 CALM      30.12R
$$

WVZ022-031-291100-
North Central West Virginia

CITY           SKY/WX    TMP DP  RH WIND       PRES   REMARKS
CLARKSBURG       N/A     66  65  96 CALM      30.13S FOG
MORGANTOWN       N/A     68  64  87 CALM      30.14R
$$

WVZ025-035-042-045-291100-
Southern West Virginia

CITY           SKY/WX    TMP DP  RH WIND       PRES   REMARKS
BECKLEY          N/A     64  56  75 CALM      30.20R
LOGAN            N/A     68  59  73 CALM      30.14F
BLUEFIELD      MOCLDY    62  54  74 CALM      30.21S
LEWISBURG      MOCLDY    58  56  94 CALM      30.21R
$$

WVZ047-291100-
Northern Mountains of West Virginia

CITY           SKY/WX    TMP DP  RH WIND       PRES   REMARKS
ELKINS         MOCLDY    60  57  89 CALM      30.19R
$$

WVZ052-291100-
Eastern Panhandle of West Virginia

CITY           SKY/WX    TMP DP  RH WIND       PRES   REMARKS
MARTINSBURG      N/A     60  59  96 CALM      30.12S FOG
PETERSBURG       N/A     62  61  99 CALM      30.15S FOG
$$




USA.gov is the U.S. government's official web portal to all federal, state and local government web resources and services.